[[{"header":{"parameterUnit":"m.s-1","parameterCategory":1,"la1":30.2991,"la2":30.254,"lo1":-89.0895,"lo2":-89.0444,"dy":0.0017,"dx":0.0017,"nx":28,"ny":28,"refTime":"2026-02-12T03:00:00:Z","depth":0,"parameterNumber":2,"parameterNumberName":"U-component_of_WINDS"},"data":[0,0,0,0,0,0,0,0,0,0,0,0,0,0,0,0,0,0,0,0,0,0,0,0,0,0,0,0,0,0,0,0,0,0,0,0,0,0,0,0,0,0,0,0,0,0,0,0,0,0,0,0,0,0,0,0,0,0,-0.4941,-0.494,0,-0.4868,-0.4867,-0.4866,-0.4823,-0.4823,-0.4823,-0.4823,-0.475,-0.4748,-0.4746,0,0,0,0,0,0,0,0,0,0,0,0,0,-0.5045,-0.5043,-0.4941,-0.494,-0.4939,-0.4868,-0.4867,-0.4866,-0.4823,-0.4823,-0.4823,-0.4823,-0.475,-0.4748,-0.4746,0,0,0,0,0,0,0,0,0,0,0,0,0,-0.4989,-0.5042,-0.4941,-0.4909,-0.4905,-0.4868,-0.4867,-0.4866,-0.4823,-0.4823,-0.4823,-0.4823,-0.4751,-0.4748,-0.4746,-0.4735,0,0,-0.4738,-0.4737,0,0,0,0,0,0,0,0,-0.4992,-0.4985,-0.4915,-0.4911,-0.4907,-0.4854,-0.4877,-0.4822,-0.4823,-0.4855,-0.4823,-0.4822,-0.4785,-0.4779,-0.4766,-0.4732,-0.4729,-0.4737,-0.4736,-0.4735,-0.4734,0,0,0,0,0,0,0,-0.4996,-0.4988,-0.4912,-0.4914,-0.4909,-0.4899,-0.4891,-0.4866,-0.4822,-0.4852,-0.4849,-0.484,-0.4783,-0.4769,-0.4764,-0.4727,-0.4738,-0.4735,-0.4734,-0.4733,-0.4682,-0.4682,0,0,0,0,0,0,-0.5004,-0.4991,-0.4914,-0.491,-0.495,-0.4897,-0.4888,-0.4872,-0.4822,-0.4815,-0.4841,-0.4839,-0.4774,-0.4768,-0.4762,-0.4747,-0.4735,-0.4732,-0.4731,-0.4682,-0.4682,-0.4682,0,0,0,0,0,0,-0.5007,-0.4998,-0.4917,-0.4949,-0.4938,-0.4896,-0.4878,-0.487,-0.4857,-0.4814,-0.4806,-0.4835,-0.4773,-0.4765,-0.4742,-0.4744,-0.4731,-0.4729,-0.4681,-0.4682,-0.4682,-0.4717,0,0,0,0,0,0,-0.501,-0.4999,-0.4994,-0.495,-0.4937,-0.4898,-0.4878,-0.4869,-0.4852,-0.4849,-0.4806,-0.4799,-0.4772,-0.4746,-0.474,-0.474,-0.4727,-0.4681,-0.4681,-0.4682,-0.4715,-0.4718,-0.4721,0,0,0,0,0,-0.5014,-0.5007,-0.4994,-0.4985,-0.493,-0.4898,-0.4891,-0.486,-0.4852,-0.4847,-0.482,-0.48,-0.4745,-0.4744,-0.4736,-0.4736,-0.4681,-0.4681,-0.4682,-0.4714,-0.4718,-0.4721,0,0,0,0,0,0,-0.5053,-0.5,-0.4986,-0.4964,-0.4936,-0.4891,-0.4884,-0.4865,-0.4839,-0.4837,-0.4801,-0.4791,-0.4772,-0.4751,-0.4752,-0.4724,-0.4711,-0.471,-0.4738,-0.4741,-0.4744,-0.4749,-0.4724,0,0,0,0,0,-0.5059,-0.5037,-0.4993,-0.4978,-0.4965,-0.4927,-0.4912,-0.4891,-0.4861,-0.4849,-0.482,-0.4792,-0.4768,-0.4753,-0.4729,-0.4712,-0.4703,-0.4708,-0.4711,-0.4713,-0.4713,-0.4704,-0.4706,-0.4684,-0.4684,-0.4684,0,0,-0.5071,-0.5039,-0.5028,-0.4985,-0.4961,-0.494,-0.4917,-0.4896,-0.4881,-0.4846,-0.4822,-0.48,-0.4767,-0.4747,-0.4737,-0.4729,-0.4717,-0.4714,-0.4716,-0.4714,-0.4705,-0.4707,-0.4709,-0.4684,-0.4684,-0.4684,0,0,-0.5082,-0.5056,-0.5041,-0.5018,-0.4982,-0.4957,-0.4953,-0.4912,-0.4896,-0.4871,-0.4845,-0.4827,-0.4786,-0.4764,-0.4747,-0.4752,-0.4733,-0.4745,-0.4759,-0.4751,-0.4753,-0.4754,-0.4757,-0.4758,-0.4744,-0.4745,-0.4745,0,-0.5102,-0.507,-0.5036,-0.5017,-0.4999,-0.4966,-0.4952,-0.4931,-0.4889,-0.4878,-0.487,-0.4819,-0.4794,-0.4769,-0.477,-0.4757,-0.4753,-0.475,-0.4755,-0.4756,-0.4757,-0.4759,-0.476,-0.4746,-0.4746,-0.4746,-0.4746,0,-0.5096,-0.5074,-0.5067,-0.5027,-0.5008,-0.4992,-0.4957,-0.4942,-0.4923,-0.4899,-0.4876,-0.4844,-0.4814,-0.4806,-0.4787,-0.4779,-0.4776,-0.4762,-0.4748,-0.4761,-0.4763,-0.4764,-0.4749,-0.4748,-0.4748,-0.4747,0,0,-0.513,-0.5073,-0.5071,-0.5053,-0.5011,-0.4994,-0.4976,-0.4946,-0.4934,-0.4907,-0.4892,-0.4859,-0.4846,-0.4827,-0.4805,-0.4798,-0.4805,-0.4785,-0.4783,-0.4791,-0.4796,-0.4808,-0.4809,-0.4792,-0.4792,-0.4792,-0.48,0,-0.5137,-0.5103,-0.5073,-0.505,-0.503,-0.4999,-0.4984,-0.4957,-0.4935,-0.4915,-0.489,-0.4868,-0.4852,-0.4841,-0.4832,-0.4806,-0.4806,-0.4805,-0.4779,-0.4779,-0.479,-0.481,-0.4822,-0.483,-0.48,-0.48,-0.48,0,-0.514,-0.5113,-0.5089,-0.505,-0.504,-0.5027,-0.4998,-0.4979,-0.4949,-0.4933,-0.4912,-0.489,-0.4871,-0.4859,-0.4833,-0.4833,-0.4821,-0.4807,-0.4806,-0.4803,-0.4791,-0.4809,-0.4832,-0.4834,-0.48,-0.48,-0.48,0,-0.5169,-0.5127,-0.5107,-0.5093,-0.5046,-0.5038,-0.5019,-0.4988,-0.4972,-0.4946,-0.4936,-0.4909,-0.4894,-0.4874,-0.4845,-0.4839,-0.4823,-0.4808,-0.4811,-0.4812,-0.481,-0.481,-0.4832,-0.48,-0.48,-0.48,-0.48,0,-0.5179,-0.5166,-0.512,-0.5107,-0.5092,-0.5058,-0.5044,-0.5022,-0.4995,-0.4979,-0.495,-0.4936,-0.4898,-0.4879,-0.4856,-0.4839,-0.4833,-0.482,-0.4815,-0.4824,-0.4825,-0.4816,-0.4815,-0.48,-0.48,-0.48,-0.48,0,-0.5209,-0.5177,-0.5154,-0.5112,-0.5102,-0.5092,-0.5057,-0.5045,-0.5021,-0.5001,-0.4994,-0.4957,-0.4934,-0.4903,-0.487,-0.4855,-0.4842,-0.4832,-0.4852,-0.4849,-0.4853,-0.4854,-0.4871,-0.4872,-0.4838,-0.4839,-0.4839,0,-0.5218,-0.5207,-0.5165,-0.5152,-0.5133,-0.5112,-0.5096,-0.5063,-0.5047,-0.5013,-0.5005,-0.498,-0.4957,-0.4922,-0.4893,-0.4868,-0.4859,-0.4866,-0.4855,-0.4865,-0.486,-0.4862,-0.4861,-0.4869,-0.487,-0.487,-0.4871,0,-0.5239,-0.5224,-0.5202,-0.5174,-0.5156,-0.5132,-0.5108,-0.5099,-0.5061,-0.5045,-0.5021,-0.5004,-0.4971,-0.4947,-0.4918,-0.4899,-0.4879,-0.4874,-0.4874,-0.4883,-0.4896,-0.4891,-0.4861,-0.4874,-0.4874,-0.4874,-0.4874,-0.4873,-0.5259,-0.5249,-0.5217,-0.5194,-0.5172,-0.515,-0.5137,-0.5112,-0.5091,-0.5061,-0.5042,-0.502,-0.4991,-0.495,-0.4932,-0.4915,-0.4907,-0.4906,-0.4906,-0.4906,-0.491,-0.4898,-0.4909,-0.4909,-0.4909,-0.4909,-0.4909,0,-0.528,-0.5258,-0.5237,-0.5204,-0.5185,-0.5167,-0.514,-0.5126,-0.5106,-0.5081,-0.506,-0.5033,-0.501,-0.4979,-0.4954,-0.4946,-0.4936,-0.494,-0.4941,-0.4938,-0.4918,-0.4921,-0.4949,-0.4949,-0.4949,-0.4949,-0.4949,-0.4949,-0.5288,-0.527,-0.5251,-0.5222,-0.52,-0.5178,-0.5164,-0.5144,-0.5123,-0.5095,-0.5075,-0.5055,-0.5028,-0.5001,-0.4979,-0.4971,-0.4963,-0.4971,-0.496,-0.4942,-0.4939,-0.4935,-0.4939,-0.4969,-0.4969,-0.4981,-0.4981,-0.4981]},{"header":{"parameterUnit":"m.s-1","parameterCategory":1,"la1":30.2991,"la2":30.254,"lo1":-89.0895,"lo2":-89.0444,"dy":0.0017,"dx":0.0017,"nx":28,"ny":28,"refTime":"2026-02-12T03:00:00:Z","depth":0,"parameterNumber":3,"parameterNumberName":"V-component_of_WINDS"},"data":[0,0,0,0,0,0,0,0,0,0,0,0,0,0,0,0,0,0,0,0,0,0,0,0,0,0,0,0,0,0,0,0,0,0,0,0,0,0,0,0,0,0,0,0,0,0,0,0,0,0,0,0,0,0,0,0,0,0,0.5992,0.5992,0,0.6012,0.6012,0.6012,0.6028,0.6028,0.6028,0.6028,0.6047,0.6048,0.6048,0,0,0,0,0,0,0,0,0,0,0,0,0,0.5966,0.5967,0.5992,0.5992,0.5993,0.6012,0.6012,0.6012,0.6028,0.6028,0.6028,0.6029,0.6047,0.6048,0.6048,0,0,0,0,0,0,0,0,0,0,0,0,0,0.5981,0.5967,0.5992,0.6003,0.6004,0.6012,0.6012,0.6012,0.6028,0.6028,0.6028,0.6029,0.6047,0.6048,0.6048,0.6046,0,0,0.605,0.605,0,0,0,0,0,0,0,0,0.598,0.5982,0.6001,0.6002,0.6003,0.6018,0.601,0.6024,0.6028,0.6019,0.6028,0.6029,0.6037,0.6038,0.6042,0.6047,0.6048,0.605,0.605,0.605,0.605,0,0,0,0,0,0,0,0.5979,0.5981,0.6,0.6001,0.6003,0.6006,0.6008,0.6013,0.6026,0.602,0.6021,0.6023,0.6038,0.6041,0.6042,0.6048,0.605,0.605,0.605,0.6051,0.6053,0.6052,0,0,0,0,0,0,0.5977,0.598,0.5999,0.6,0.5992,0.6006,0.6009,0.6013,0.6026,0.6029,0.6023,0.6024,0.604,0.6042,0.6043,0.6041,0.605,0.6051,0.6051,0.6053,0.6052,0.6052,0,0,0,0,0,0,0.5976,0.5978,0.5998,0.5991,0.5993,0.6006,0.6011,0.6013,0.6016,0.6029,0.6031,0.6024,0.604,0.6042,0.6045,0.6042,0.6051,0.6051,0.6053,0.6053,0.6052,0.6038,0,0,0,0,0,0,0.5975,0.5978,0.5978,0.599,0.5994,0.6001,0.6011,0.6013,0.6017,0.6019,0.603,0.6032,0.6041,0.6044,0.6046,0.6043,0.6052,0.6053,0.6053,0.6052,0.6039,0.6037,0.6036,0,0,0,0,0,0.5974,0.5973,0.5978,0.598,0.5994,0.6001,0.6003,0.6013,0.6017,0.6017,0.6025,0.6032,0.6042,0.6045,0.6046,0.6043,0.6054,0.6053,0.6053,0.6039,0.6037,0.6036,0,0,0,0,0,0,0.5959,0.5975,0.598,0.5983,0.599,0.6003,0.6003,0.601,0.6016,0.6017,0.6029,0.6031,0.6033,0.6039,0.6041,0.6042,0.6049,0.6049,0.6038,0.6036,0.6035,0.6033,0.6052,0,0,0,0,0,0.5956,0.5961,0.5974,0.5975,0.5979,0.599,0.5994,0.6001,0.6009,0.6012,0.602,0.6027,0.6032,0.6034,0.604,0.604,0.6042,0.6039,0.6037,0.6036,0.6035,0.6035,0.6033,0.605,0.605,0.605,0,0,0.595,0.5959,0.5961,0.5972,0.5979,0.5983,0.5993,0.5997,0.5999,0.6012,0.6015,0.6022,0.603,0.6031,0.6033,0.6036,0.6031,0.6035,0.6034,0.6034,0.6034,0.6032,0.6031,0.605,0.605,0.605,0,0,0.5941,0.5948,0.595,0.5956,0.5966,0.5974,0.5974,0.5986,0.599,0.5994,0.6003,0.6006,0.6015,0.602,0.6024,0.6016,0.6023,0.6017,0.6009,0.6008,0.6007,0.6006,0.6002,0.6001,0.6017,0.6017,0.6017,0,0.5932,0.5938,0.595,0.5953,0.5957,0.5969,0.597,0.5975,0.5986,0.5988,0.5993,0.6003,0.6009,0.6012,0.601,0.6013,0.6013,0.6016,0.6006,0.6005,0.6004,0.6001,0.6,0.6016,0.6016,0.6016,0.6016,0,0.5926,0.5931,0.593,0.5941,0.5945,0.5947,0.5958,0.5961,0.5967,0.5974,0.5977,0.5986,0.5992,0.5993,0.6,0.5996,0.5998,0.6004,0.6011,0.6002,0.5999,0.5997,0.6015,0.6015,0.6015,0.6016,0,0,0.5908,0.5924,0.5924,0.5928,0.594,0.5943,0.5945,0.5952,0.5954,0.5961,0.5962,0.5969,0.5974,0.5978,0.5985,0.5985,0.5977,0.5991,0.5991,0.5987,0.5972,0.5967,0.5966,0.5982,0.5981,0.5981,0.5971,0,0.59,0.5905,0.5915,0.5916,0.592,0.5931,0.5933,0.594,0.5946,0.595,0.5957,0.5961,0.5968,0.597,0.5971,0.5978,0.5974,0.5979,0.5982,0.5982,0.5979,0.5964,0.5959,0.5949,0.597,0.597,0.597,0,0.5891,0.5897,0.5899,0.591,0.5912,0.5913,0.5919,0.5923,0.5931,0.5935,0.594,0.5948,0.595,0.5957,0.5959,0.5962,0.5964,0.5968,0.5968,0.5968,0.5975,0.5963,0.5946,0.5944,0.5968,0.5969,0.5969,0,0.5877,0.5886,0.5888,0.5891,0.5904,0.5904,0.5909,0.5917,0.592,0.5926,0.5928,0.5933,0.5936,0.594,0.5949,0.5953,0.595,0.5958,0.5953,0.5953,0.5952,0.5951,0.5934,0.5954,0.5954,0.5954,0.5954,0,0.5866,0.5867,0.5881,0.5882,0.5883,0.5894,0.5894,0.59,0.5907,0.5909,0.5919,0.592,0.5932,0.5935,0.5942,0.5942,0.5944,0.5947,0.5949,0.5946,0.5945,0.5947,0.5947,0.5954,0.5954,0.5954,0.5954,0,0.585,0.586,0.5862,0.5874,0.5877,0.5876,0.5886,0.5887,0.5894,0.5896,0.5898,0.5908,0.5912,0.5921,0.5927,0.5932,0.593,0.5934,0.5928,0.5928,0.5923,0.5923,0.5905,0.5903,0.5925,0.5925,0.5925,0,0.5842,0.5843,0.5854,0.5856,0.5861,0.5864,0.5868,0.5878,0.5881,0.5889,0.5889,0.5894,0.5898,0.5903,0.5911,0.5915,0.5919,0.5912,0.5919,0.5916,0.5917,0.5917,0.5916,0.591,0.591,0.591,0.591,0,0.5827,0.5832,0.5836,0.5842,0.5845,0.585,0.5856,0.5857,0.5869,0.5871,0.5875,0.5878,0.5884,0.5888,0.5894,0.5899,0.5906,0.5907,0.5906,0.5903,0.5899,0.59,0.5922,0.5908,0.5908,0.5908,0.5908,0.5908,0.5815,0.5815,0.5823,0.5827,0.5832,0.5837,0.5838,0.5845,0.5849,0.5855,0.5861,0.5864,0.587,0.5879,0.5883,0.5885,0.5889,0.5887,0.5887,0.5886,0.5884,0.5899,0.5886,0.5886,0.5886,0.5886,0.5886,0,0.5799,0.5805,0.5808,0.5816,0.5819,0.5826,0.5832,0.5834,0.5836,0.5842,0.5846,0.585,0.5853,0.5861,0.5866,0.5866,0.5869,0.5866,0.5866,0.5867,0.5881,0.5881,0.5864,0.5864,0.5864,0.5864,0.5864,0.5864,0.5792,0.5793,0.5798,0.5801,0.5807,0.581,0.5813,0.5817,0.5821,0.5825,0.5828,0.5834,0.584,0.5845,0.5848,0.5851,0.5851,0.5847,0.585,0.5864,0.5866,0.5868,0.5868,0.5848,0.5848,0.5836,0.5835,0.5835]}]]